Reflectivity
-20 -20 -20 -20 -20 -20 -20 -20 -20 -20 -20 -20 -20 -20 -20 -20 -20 -20 -20 -20 -20 -20 -20 -20 -20 -20 -20 -20 -20 -20 -20 -20 -20 -20 -20 -20 -20 -20 -20 -20 -20 -20 -20
-20 -20 -20 -20 -20 -20 -20 -20 -20 -20 -20 -20 -20 -20 -20 -20 -20 -20 -20 -20 -20 -20 -20 -20 -20 -20 -20 -20 -20 -20 -20 -20 -20 -20 -20 -20 -20 -20 -20 -20 -20 -20 -20
-20 -20 -20 -20 -20 -20 -20 -20 -20 -20 -20 -20 -20 -20 -20 -20 -20 -20 -20 -20 -20 -20 -20 -20 -20 -20 -20 -20 -20 -20 -20 -20 -20 -20 -20 -20 -17 -20 -20 -20 -20 -20 -20
-20 -20 -20 -20 -20 -20 -20 -20 -20 -20 -20 -20 -20 -20 -20 -20 -20 -20 -20 -20 -20 -20 -20 -20 -20 -20 -20 -20 -20 -20 -20 -20 -20 -20 -20 -20 0 4 -8 -20 -20 -20 -20
-20 -20 -20 -20 -20 -20 -20 -20 -20 -20 -20 -20 -20 -20 -20 -20 -20 -20 -20 -20 -20 -20 -20 -20 -20 -20 -20 -20 -20 -20 -20 -20 -20 -20 -20 -20 -20 -20 -9 -20 -20 -20 -20
-20 -20 -20 -20 -20 -20 -20 -20 -20 -20 -20 -20 -20 -20 -20 -20 -20 -20 -20 -20 -20 -20 -20 -20 -20 -20 -20 -20 -20 -20 -20 -20 -20 -20 -20 -8 1 -1 -0 -8 -18 -20 -20
-20 -20 -20 -20 -20 -20 -20 -16 -20 -20 -20 -20 -20 -20 -20 -20 -20 -20 -20 -20 -20 -20 -20 -20 -20 -20 -20 -20 -20 -20 -20 -20 -20 -20 -20 -9 -3 0 -1 -0 -0 -0 -20
-20 -20 -20 -20 -20 -20 -20 -20 -20 -20 -20 -20 -20 -20 -20 -20 -20 -20 -20 -20 -20 -20 -20 -20 -0 -20 -20 -20 -20 -20 -20 -20 -20 -20 -20 -20 -19 1 -0 5 -17 -4 -20
-20 -20 -20 -20 -20 -19 -20 -20 -20 -20 -20 -20 -20 -20 -20 -20 -20 -20 -20 -20 -20 -20 -20 -20 -20 -20 -20 -20 -20 -20 -20 -20 -20 -20 -20 -20 -11 1 -7 -13 5 2 -1
-20 -20 -20 -20 -20 -20 -20 -20 -20 -20 -20 -20 -20 -20 -20 -20 -20 -20 -20 -20 -20 -20 -20 -20 -20 -20 -20 -20 -20 -20 -20 -20 -20 -20 -20 -20 -20 -20 -14 -7 -2 5 -3
-20 -20 -20 5 -14 -20 -20 -20 -20 -20 -20 -20 -20 -20 -20 -20 -20 -20 -20 -20 -20 -20 -20 -20 -20 -20 -20 -20 -20 -20 -20 -20 -20 -20 -20 -20 -17 -20 -4 -12 -2 -3 -2
-20 -20 -20 -18 -4 -20 -20 -20 -20 -20 -20 -20 -20 1 -12 -5 -20 -20 -20 -20 -20 -20 -20 -20 -20 -20 -20 -20 -20 -20 -20 -20 -20 -20 -20 -20 -20 -20 -19 -9 -1 -4 -5
-20 -12 5 7 -18 -20 -17 -9 -10 -4 2 2 10 0 -13 -20 -20 -20 -20 -20 -20 -20 -20 -20 -20 -20 -20 -20 -20 -20 -20 -20 -20 -20 -20 -20 -20 -20 -20 -20 -20 -20 -20
-20 -20 -18 4 12 7 11 -12 -20 -14 -7 22 3 6 -19 -20 -11 -10 -20 -20 -20 -20 -20 -20 -20 -20 -20 -20 -20 -20 -20 -20 -20 -20 -20 -20 -20 -20 -20 -20 -20 -20 -20
-13 -10 -16 -19 -16 1 1 -18 -16 7 13 6 18 -18 -16 -20 -20 -20 -20 -20 -20 -20 -20 -20 -20 -20 -20 -20 -20 -20 -20 -20 -20 -20 -20 -20 -20 -20 -13 -20 -20 -20 -18
-20 -20 -1 -9 -14 -7 -11 10 5 16 28 12 2 4 -20 -20 -20 -20 -20 -20 -20 -20 -20 -20 -20 -20 -20 -20 -20 -20 -20 -20 -20 -20 -20 -20 -20 -20 -20 -20 -20 -20 -20
-20 -20 -20 10 15 23 31 27 21 12 8 2 -3 8 11 4 -3 1 -18 -20 -20 -20 -20 -20 -20 -20 -20 -20 -20 -20 -20 -20 -20 -20 -20 -20 -20 -20 -20 -20 -20 -20 -20
11 -2 -3 27 21 32 33 25 13 30 18 4 15 20 19 4 -20 -20 -20 -20 -20 -20 -20 -20 -20 -20 -20 -20 -20 -20 -20 -20 -12 -20 -20 -20 -20 -20 -20 -20 -20 -20 -20
24 34 30 32 29 36 38 34 38 31 0 22 23 20 14 10 6 -17 -20 -20 -20 -20 -20 -20 -20 -20 -20 -20 -20 -20 -20 0 2 2 -8 -20 -20 -20 -20 -20 -20 -20 -20
-7 20 34 29 31 33 35 30 20 14 27 29 19 16 12 -17 -16 -20 -20 -20 -20 -20 -20 -20 -20 -20 -20 -20 -20 -20 -20 -20 -20 -20 -19 -20 -20 -20 -20 -20 -20 -20 -20
19 5 9 -0 15 25 21 36 27 26 24 34 17 7 2 -12 -20 -20 -20 -20 -20 -20 -20 -20 -20 -20 -20 -20 -20 -20 -20 -20 -20 -20 -2 -20 -20 -20 -20 -20 -20 -20 -20
-9 -19 -19 2 -15 1 -11 -4 7 20 34 18 17 -19 -20 -20 -20 -20 -20 -20 -20 -20 -20 -20 -20 -20 -10 -7 -11 -20 -20 -20 -20 -20 -14 -20 -20 -20 -20 -20 -20 -20 -20
-20 -20 -20 -20 -5 -8 -17 -10 3 13 12 29 13 -20 -20 -20 -20 -20 -20 -20 -20 -20 -20 -20 -9 -20 -17 6 -1 -3 -20 -20 -20 -20 -20 -20 -20 -20 -20 -20 -20 -20 -20
-20 -20 -20 -20 -4 6 -12 -20 -0 28 22 5 -12 -20 -20 -20 -20 -20 -20 -20 -20 -20 -20 -20 -20 -20 -20 -20 -3 1 -18 -20 -20 -20 -20 -20 -20 -20 -20 -20 -20 -20 -20
-20 -20 -20 -20 -20 -10 -20 -20 9 11 18 24 19 -6 -20 -20 -20 -20 -20 -20 -20 -20 -20 -20 -20 -20 -9 -12 -20 -20 -20 -20 -20 -20 -20 -20 -20 -20 -20 -20 -20 -20 -20
-20 -20 -20 -20 -20 -20 -19 -15 4 12 -11 1 -12 -14 -10 -20 -20 -20 -20 -20 -20 -20 -20 -20 -20 -20 -20 -20 -20 -20 -20 -20 -20 -20 -20 -20 -20 -20 -20 -20 -20 -20 -20
Wind_Speed
13 12 12 11 11 10 10 10 10 11 9 8 6 5 5 5 6 7 9 9 8 9 8 6 7 6 7 7 8 6 8 6 10 6 6 4 3 5 6 7 7 10 10
16 16 14 13 13 12 10 10 10 11 8 5 4 4 5 6 6 6 8 9 10 10 8 8 7 8 6 9 10 10 7 5 8 5 4 4 1 5 5 5 7 10 8
22 20 18 16 13 13 12 11 10 10 8 7 7 7 7 4 4 5 6 8 9 9 9 9 8 9 7 6 7 7 8 6 6 8 5 3 3 10 2 4 6 8 8
21 20 20 18 16 12 11 11 9 10 8 10 8 8 3 4 4 5 5 6 8 9 9 9 8 7 5 6 6 6 7 7 7 5 6 4 4 3 6 5 9 9 11
24 24 23 21 17 14 12 10 10 9 9 8 7 5 7 7 5 5 7 8 8 9 8 8 7 7 6 7 9 9 9 7 5 4 4 4 5 3 3 6 7 11 8
20 19 19 19 16 14 13 12 12 10 9 9 9 10 11 9 7 6 6 6 5 5 7 7 7 7 7 9 9 10 11 9 6 5 5 4 3 5 4 4 8 11 7
20 21 24 22 19 18 15 13 13 12 11 11 11 10 10 9 9 7 5 6 5 4 6 6 7 7 9 9 9 9 9 8 6 7 5 4 4 5 4 6 7 6 7
18 21 22 20 20 19 17 15 14 14 13 12 12 11 10 7 7 7 5 5 5 5 6 7 7 8 9 9 8 7 7 7 7 9 7 4 5 5 5 5 7 7 5
17 19 20 19 20 19 18 16 16 15 14 13 12 11 10 10 8 8 7 5 5 5 7 7 8 9 9 9 8 7 8 7 7 7 6 5 4 5 5 5 5 5 5
15 18 18 19 18 18 17 16 15 15 14 14 12 11 11 10 9 8 8 7 7 7 7 7 8 9 8 9 8 7 8 7 6 5 7 6 6 6 6 5 5 4 5
14 16 16 16 18 18 17 15 15 15 15 14 13 13 12 11 9 8 7 7 7 7 8 7 9 8 9 8 8 8 8 8 8 7 8 8 8 6 6 6 6 6 6
16 17 19 20 20 20 18 17 16 16 15 14 14 13 12 11 11 9 8 7 8 8 8 8 9 9 10 8 9 9 8 9 9 8 9 10 6 8 8 6 8 7 6
13 14 17 19 19 17 17 17 16 16 14 14 14 13 13 12 11 10 8 7 8 8 9 9 9 9 9 10 10 9 9 8 8 8 9 10 10 9 8 8 7 7 6
14 15 16 16 17 17 17 18 16 15 15 15 15 14 13 11 10 10 9 8 8 8 8 10 10 10 10 9 10 8 7 7 7 8 9 11 11 11 10 9 9 8 6
13 14 15 15 16 17 17 16 15 16 16 15 14 14 13 12 11 10 9 8 8 8 8 9 10 10 9 7 7 8 6 6 7 8 9 10 13 16 16 9 11 9 7
13 15 16 18 18 17 15 14 15 16 15 14 14 14 13 12 11 10 10 9 8 8 9 9 10 11 8 12 13 7 7 8 7 7 9 8 9 12 16 16 20 17 10
13 15 16 15 13 13 13 15 14 14 15 14 13 13 12 12 11 10 10 9 8 9 10 11 10 11 11 13 13 10 8 9 9 10 9 9 7 9 9 13 14 17 19
11 13 11 10 12 12 11 12 14 13 13 14 14 13 13 11 11 10 10 8 8 9 10 11 10 11 9 13 13 11 9 10 11 11 11 10 10 11 8 9 11 11 13
9 10 11 13 14 16 15 16 15 15 14 15 13 14 14 13 12 10 10 9 9 9 9 10 11 11 10 12 12 10 9 9 10 9 11 11 11 14 12 9 9 10 10
8 6 11 13 15 16 17 16 15 15 13 13 14 14 14 13 11 12 10 7 8 9 9 9 8 12 10 13 11 8 6 8 8 9 10 15 12 15 14 9 7 8 8
9 8 13 14 16 19 19 17 17 15 13 15 15 14 14 14 14 12 10 10 9 8 9 8 7 8 8 11 11 10 6 6 6 6 6 8 14 15 15 14 9 8 5
9 6 6 7 11 14 15 16 16 14 14 14 14 14 16 12 12 13 10 10 9 9 9 10 8 4 6 13 13 11 11 10 7 6 5 7 14 15 15 12 14 12 7
5 6 7 9 8 10 11 14 13 17 17 16 14 14 15 14 13 13 11 9 8 8 9 8 8 6 5 7 15 14 14 13 8 6 9 12 12 11 13 15 13 9 6
4 6 9 8 8 8 9 12 14 15 15 17 16 15 15 14 13 9 9 8 8 8 7 8 8 7 7 6 6 7 8 10 8 9 6 8 9 9 6 6 8 7 7
3 6 8 9 9 10 12 13 15 16 15 16 14 14 12 13 12 10 9 8 7 7 8 8 8 8 7 5 8 9 6 6 7 7 5 4 3 4 5 5 6 6 6
5 5 8 10 11 11 12 12 12 14 16 15 12 11 11 11 10 10 8 7 9 10 11 12 9 5 11 15 14 14 13 13 10 4 4 4 4 4 4 4 5 5 6
Wind_Direction
185 175 168 163 157 153 150 148 153 153 146 143 133 115 105 95 83 73 62 60 58 55 52 54 48 42 41 34 27 20 15 18 358 336 339 330 44 53 46 49 50 43 41
191 184 175 171 175 161 154 157 164 167 164 157 122 118 122 90 80 73 62 55 54 50 53 47 46 39 39 35 31 25 18 27 23 6 312 354 303 29 35 49 50 43 31
196 184 181 181 173 168 166 165 163 169 171 146 125 114 111 109 87 69 64 53 54 52 50 49 46 44 40 39 37 30 29 22 31 42 12 349 342 337 42 31 31 26 23
197 187 183 180 180 174 160 154 153 155 158 158 155 157 138 128 106 94 84 74 59 57 52 51 49 51 50 46 45 43 42 32 33 15 12 3 327 318 305 314 330 1 352
191 186 183 177 176 163 160 148 141 140 148 153 150 138 117 113 122 115 101 79 65 56 53 53 57 55 53 54 49 46 42 44 46 40 343 340 314 28 324 308 336 314 327
195 187 178 168 167 161 157 151 147 138 135 134 132 130 133 137 135 122 104 86 78 73 60 65 67 62 60 54 53 44 43 37 39 23 26 14 358 346 330 305 319 308 322
186 183 178 173 166 163 159 152 149 142 140 133 129 132 131 131 127 122 113 113 101 82 65 67 63 54 54 56 53 43 43 38 41 33 26 21 24 346 320 309 318 308 311
188 187 181 172 166 163 161 156 154 148 147 141 135 133 133 133 125 123 124 103 94 87 75 72 69 64 58 62 61 50 42 36 38 34 30 22 19 360 356 340 324 309 282
188 184 180 172 165 164 163 160 158 152 148 143 137 135 135 132 127 126 120 102 96 91 77 70 70 63 60 57 60 55 43 32 35 32 33 24 13 6 0 353 324 314 313
184 181 178 173 166 164 161 160 160 155 149 146 142 139 135 131 133 127 116 108 102 99 94 87 80 72 67 65 64 60 46 42 37 29 29 23 20 13 10 353 337 335 310
190 180 175 171 164 160 161 160 160 154 155 152 144 142 138 139 132 125 122 111 108 104 98 96 88 75 71 67 72 71 60 51 46 35 34 27 25 18 12 -0 354 347 349
184 180 176 169 169 164 162 163 162 162 161 151 147 145 144 140 135 135 129 128 114 108 107 105 90 81 73 70 70 65 54 43 41 37 40 30 24 26 21 10 358 356 3
182 178 173 177 172 164 164 165 165 163 155 153 149 149 146 148 145 139 125 119 115 114 110 101 94 87 81 76 70 62 55 53 42 41 42 36 28 29 24 20 6 5 4
184 182 184 182 175 168 167 166 167 158 156 156 157 152 154 146 144 135 127 122 115 115 117 105 98 89 80 74 72 70 67 59 53 49 48 44 37 31 28 29 17 10 10
191 188 189 186 180 176 171 169 166 159 159 160 159 153 144 147 139 132 126 121 122 126 116 115 95 84 78 70 81 76 72 74 66 59 55 49 48 43 40 34 33 25 21
214 207 192 184 188 182 174 170 168 161 157 151 152 148 147 144 143 137 125 122 129 122 114 104 94 87 80 84 82 81 80 73 58 64 60 62 52 57 50 44 45 45 34
213 211 202 196 175 186 173 165 168 153 153 146 142 146 145 144 143 135 134 134 132 125 116 109 102 99 98 93 93 91 82 76 70 61 56 57 53 56 57 60 50 44 47
213 213 195 185 167 160 173 152 153 156 150 141 142 149 149 143 137 137 124 119 122 117 116 109 111 103 96 106 101 99 93 87 77 71 71 64 52 50 59 65 61 51 39
206 219 195 176 162 164 167 156 158 154 151 152 147 152 150 145 140 133 131 138 133 121 112 117 118 113 115 117 113 110 103 92 81 74 77 73 65 58 60 66 66 60 46
289 241 179 169 164 165 160 156 155 152 163 152 147 148 143 137 134 135 132 126 120 116 115 111 107 111 115 119 122 119 116 102 90 76 67 71 72 67 64 67 71 67 39
302 266 186 180 169 159 157 156 155 161 153 143 144 144 140 140 134 132 128 130 125 125 124 115 104 106 125 116 114 112 110 109 100 89 73 69 69 67 64 66 62 59 43
25 40 110 134 149 150 152 153 155 139 135 133 142 137 139 140 139 134 133 132 130 137 137 123 114 99 123 119 117 112 106 106 104 96 79 72 72 70 67 63 61 57 58
69 72 104 116 130 150 151 147 137 135 134 136 140 137 133 138 139 139 138 137 157 157 149 138 134 123 121 131 127 124 113 106 104 104 97 89 85 72 67 60 57 50 49
79 109 113 113 123 133 134 125 132 131 135 137 144 140 143 143 145 143 145 154 167 165 158 148 148 137 129 129 133 126 119 105 92 98 89 96 90 77 80 62 57 52 45
137 144 138 135 129 122 125 135 138 139 137 140 145 145 146 150 149 151 161 163 171 169 157 155 149 149 155 163 155 147 140 129 121 124 130 130 111 90 76 70 57 51 46
142 142 139 141 135 136 136 136 142 143 142 143 146 151 153 157 155 154 154 157 157 157 147 148 144 146 140 147 142 136 131 136 148 146 136 109 94 83 76 67 66 55 48